Location: Eschertshofen
(49.3064°N, 11.5756°E)
Time: 16:51:18
(UTC+00:00)

IRIDIUM 105 - Pass Details

Date: 27 January 2022
Orbit: 776 x 779 km, 86.4° (Epoch: 25 May)

Event Time Altitude Azimuth Distance (km) Brightness Sun altitude
Rises 16:55:35 0° 232° (SW) 3,253 ? -8.9°
Reaches altitude 10° 16:58:49 10° 253° (WSW) 2,330 ? -9.4°
Maximum altitude 17:02:03 16° 292° (WNW) 1,928 ? -9.9°
Drops below altitude 10° 17:05:17 10° 330° (NNW) 2,339 ? -10.4°
Sets 17:08:34 0° 352° (N) 3,271 ? -11.0°
